User: anonymous   Login
Location: Elliot Lake
(46.3862°N, 82.6509°W)
Time: 09:50:17
(UTC-04:00)
Language:

ISS - Orbit

View from above orbital plane
View from above orbital plane
View from above satellite
View from above satellite

Ground track
Ground track

The orbit data is extracted from the following two-line orbital elements,

1 25544U 98067A   24199.39303534  .00020587  00000-0  36774-3 0  9997
2 25544  51.6386 165.6954 0010420  76.0087   4.5170 15.49952467463239
Epoch (UTC): 17 July 2024 09:25:58
Eccentricity: 0.0010420
inclination: 51.6386°
perigee height: 410 km
apogee height: 424 km
right ascension of ascending node: 165.6954°
argument of perigee: 76.0087°
revolutions per day: 15.49952467
mean anomaly at epoch: 4.5170°
orbit number at epoch: 46323

The dashed part of the orbit path shows where the satellite is in the earth's shadow,  

DLR